Home   Weather   Ciudad del Este   Past weeks

Flag for Paraguay Past Weather in Ciudad del Este, Paraguay — Yesterday and Last 2 Weeks

Now
79 °F

Sunny.


Feels Like: 79 °F
Forecast: 46 / 77 °F
Wind: 7 mph from North

Location: Foz Do Iguacu Aeroporto

Current Time: Jul 22, 2017 at 5:05:02 pm

Latest Report: Jul 22, 2017 at 4:00 pm


Visibility: 10 mi

Pressure: 30.04 "Hg

Humidity: 39%

Dew Point: 52 °F

Location of Ciudad del EsteLocation

Past Weather in Ciudad del Este — Graph

°F

Ciudad del Este Temperature Yesterday

Maximum temperature yesterday: 75 °F (at 1:00 pm)
Minimum temperature yesterday: 45 °F (at 1:00 am)
Average temperature yesterday: 57 °F

High & Low Weather Summary for the Past Weeks

 TemperatureHumidityPressure
High84 °F (Jul 14, 3:00 pm)100% (Jul 9, 8:00 pm)30.48 "Hg (Jul 9, 8:00 pm)
Low28 °F (Jul 18, 6:00 am)30% (Jul 19, 3:00 pm)29.83 "Hg (Jul 15, 4:00 pm)
Average61 °F74%30.16 "Hg
* Reported Jul 7 4:00 pm — Jul 22 4:00 pm, Ciudad del Este. Weather by CustomWeather, © 2017

Note: Actual official high and low records may vary slightly from our data, if they occured in-between our weather recording intervals... More about our weather records

Advertising

Ciudad del Este Weather History for the Previous 24 Hours

Scroll right to see more
 ConditionsComfort  
Time TempWeatherWind HumidityBarometerVisibility
4:00 pm
Sat, Jul 22
79 °FSunny.7 mph39%30.04 "Hg10 mi
3:00 pm79 °FSunny.9 mph37%30.04 "Hg10 mi
2:00 pm81 °FSunny.9 mph34%30.04 "Hg10 mi
1:00 pm79 °FSunny.7 mph39%30.07 "Hg10 mi
12:00 pm75 °FSunny.6 mph41%30.09 "Hg10 mi
11:00 am72 °FSunny.5 mph50%30.15 "Hg10 mi
10:00 am64 °FSunny.5 mph60%30.15 "Hg10 mi
9:00 am59 °FSunny.12 mph68%30.18 "Hg10 mi
8:00 am55 °FSunny.12 mph72%30.15 "Hg10 mi
7:00 am50 °FSunny.8 mph88%30.15 "Hg10 mi
6:00 am50 °FClear.9 mph88%30.12 "Hg10 mi
5:00 am50 °FClear.10 mph88%30.12 "Hg10 mi
4:00 am52 °FClear.7 mph82%30.09 "Hg10 mi
3:00 am50 °FClear.8 mph88%30.12 "Hg10 mi
2:00 am54 °FClear.7 mph77%30.12 "Hg10 mi
12:00 am50 °FClear.5 mph94%30.15 "Hg10 mi
11:00 pm
Fri, Jul 21
48 °FClear.2 mph100%30.15 "Hg10 mi
10:00 pm50 °FClear.2 mph94%30.15 "Hg10 mi
9:00 pm52 °FClear.No wind94%30.15 "Hg10 mi
8:00 pm57 °FClear.7 mph82%30.12 "Hg10 mi
7:00 pm61 °FClear.6 mph72%30.12 "Hg10 mi
6:00 pm63 °FClear.6 mph68%30.12 "Hg10 mi
5:00 pm66 °FSunny.6 mph60%30.12 "Hg10 mi
Weather by CustomWeather, © 2017

See weather overviewHow to use our weather pages